La Mercy, South Africa

10:18 PM SAST on September 23, 2017 (GMT +0200)
La Mercy

Weather History for FALE - August, 2013

Change the Weather History Date:

Sunday, August 18, 2013

  Actual Average Record
Temperature  
Mean Temperature 62 °F -  
Max Temperature 68 °F - - ()
Min Temperature 55 °F - - ()
Degree Days  
Heating Degree Days 2    
Growing Degree Days 12 (Base 50)    
Moisture  
Dew Point 52 °F    
Average Humidity 67    
Maximum Humidity 94    
Minimum Humidity 38    
Precipitation  
Precipitation 0.00 in - - ()
Sea Level Pressure  
Sea Level Pressure 30.00 in    
Wind  
Wind Speed 8 mph ()    
Max Wind Speed 17 mph    
Max Gust Speed 29 mph    
Visibility 7.5 miles    
Events      
T = Trace of Precipitation, MM = Missing Value Source: Averaged Metar Reports

Daily Weather History Graph

Daily Weather History Graph

Search for Another Location

Airport or City:

Trip Planner

Search our weather history database for the weather conditions in past years. The results will help you decide how hot, cold, wet, or windy it might be!

Date:

Astronomy

Aug. 18, 2013 Rise Set
Actual Time 6:25 AM SAST 5:33 PM SAST
Civil Twilight 6:01 AM SAST 5:57 PM SAST
Nautical Twilight 5:33 AM SAST 6:25 PM SAST
Astronomical Twilight 5:05 AM SAST 6:53 PM SAST
Moon 2:53 PM SAST (8/18) 3:49 AM SAST (8/18)
Length of Visible Light 11h 56m
Length of Day
11h 07m
Waxing Gibbous, 90% of the Moon is Illuminated
Aug 18
Waxing Gibbous
Aug 21
Full
Aug 28
Last Quarter
Sep 5
New
Sep 12
First Quarter

Hourly Weather History & Observations

Time (SAST) Temp. Dew Point Humidity Pressure Visibility Wind Dir Wind Speed Gust Speed Precip Events Conditions
12:00 AM 64.4 °F 59.0 °F 83% 29.80 in 6.2 mi SW 9.2 mph - N/A   Mostly Cloudy
1:00 AM 64.4 °F 59.0 °F 83% 29.83 in 6.2 mi SW 9.2 mph - N/A   Mostly Cloudy
2:00 AM 64 °F 58 °F 73% 29.84 in 12 mi SW 8.1 mph - -   Mostly Cloudy
2:00 AM 62.6 °F 59.0 °F 88% 29.83 in 6.2 mi SW 8.1 mph - N/A   Mostly Cloudy
3:00 AM 62.6 °F 59.0 °F 88% 29.83 in 6.2 mi SW 8.1 mph - N/A   Mostly Cloudy
4:00 AM 60.8 °F 59.0 °F 94% 29.86 in 6.2 mi SSW 8.1 mph - N/A   Mostly Cloudy
5:00 AM 62 °F 57 °F 78% 29.87 in 12 mi SW 5.8 mph - -   Partly Cloudy
5:00 AM 60.8 °F 59.0 °F 94% 29.86 in 6.2 mi SW 4.6 mph - N/A   Scattered Clouds
6:00 AM 59.0 °F 55.4 °F 88% 29.89 in 6.2 mi SW 5.8 mph - N/A   Partly Cloudy
7:00 AM 57.2 °F 55.4 °F 94% 29.92 in 6.2 mi WSW 4.6 mph - N/A   Partly Cloudy
8:00 AM 63 °F 55 °F 68% 29.95 in 12 mi West 5.8 mph - -   Scattered Clouds
8:00 AM 64.4 °F 57.2 °F 77% 29.95 in 6.2 mi WSW 8.1 mph - N/A   Partly Cloudy
9:00 AM 64.4 °F 55.4 °F 73% 30.01 in 6.2 mi SSW 11.5 mph - N/A   Mostly Cloudy
10:00 AM 64.4 °F 55.4 °F 73% 30.01 in 6.2 mi South 13.8 mph - N/A   Mostly Cloudy
11:00 AM 67 °F 53 °F 50% 30.01 in 12 mi South 15.0 mph - -   Mostly Cloudy
11:00 AM 66.2 °F 53.6 °F 64% 30.01 in 6.2 mi South 17.3 mph 28.8 mph N/A   Mostly Cloudy
12:00 PM 66.2 °F 50.0 °F 56% 30.01 in 6.2 mi South 12.7 mph - N/A   Mostly Cloudy
1:00 PM 66.2 °F 48.2 °F 52% 30.01 in 6.2 mi South 16.1 mph - N/A   Scattered Clouds
2:00 PM 67 °F 47 °F 38% 30.01 in 12 mi South 13.8 mph - -   Partly Cloudy
2:00 PM 66.2 °F 48.2 °F 52% 30.01 in 6.2 mi SSE 13.8 mph - N/A   Partly Cloudy
3:00 PM 66.2 °F 48.2 °F 52% 30.01 in 6.2 mi SSE 11.5 mph - N/A   Mostly Cloudy
4:00 PM 64.4 °F 48.2 °F 56% 30.01 in 6.2 mi South 11.5 mph - N/A   Mostly Cloudy
5:00 PM 65 °F 46 °F 40% 30.06 in 12 mi South 11.5 mph - -   Mostly Cloudy
5:00 PM 64.4 °F 46.4 °F 52% 30.06 in 6.2 mi South 10.4 mph - N/A   Mostly Cloudy
6:00 PM 64.4 °F 46.4 °F 52% 30.09 in 6.2 mi South 11.5 mph - N/A   Mostly Cloudy
7:00 PM 64.4 °F 44.6 °F 49% 30.12 in 6.2 mi South 13.8 mph - N/A   Mostly Cloudy
8:00 PM 63 °F 47 °F 44% 30.18 in 12 mi SSW 5.8 mph - -   Mostly Cloudy
8:00 PM 62.6 °F 48.2 °F 59% 30.15 in 6.2 mi SSW 5.8 mph - N/A   Mostly Cloudy
9:00 PM 60.8 °F 48.2 °F 63% 30.21 in 6.2 mi WSW 3.5 mph - N/A   Mostly Cloudy
10:00 PM 57.2 °F 48.2 °F 72% 30.21 in 6.2 mi Variable 1.2 mph - N/A   Scattered Clouds
11:00 PM 58 °F 46 °F 56% 30.24 in - West 4.6 mph - -  
11:00 PM 55.4 °F 48.2 °F 77% 30.24 in 6.2 mi Variable 2.3 mph - N/A   Scattered Clouds